Location: Unspecified
(35.6961°N, 0.0000°E)
Time: 01:32:09
(UTC+00:00)

UNISAT 6 - Pass Details

Date: 17 June 2019
Orbit: 608 x 688 km, 97.7° (Epoch: 19 August)

Event Time Altitude Azimuth Distance (km) Brightness Sun altitude
Rises 21:12:14 0° 6° (N) 2,879 ? -18.7°
Reaches altitude 10° 21:14:26 10° 2° (N) 1,976 ? -19.0°
Maximum altitude 21:18:38 55° 285° (WNW) 744 ? -19.5°
Enters shadow 21:22:05 15° 210° (SSW) 1,689 ? -20.0°
